Wind_Speed
26 26 26 26 26 26 26 25 25 24 24 24 24 24 24 24 24 24 24 24 23 22 23 22 23 23 23 23 23 22 22 22 22 21 21 21 22 22 23 23 23 23 23
26 26 27 27 27 26 26 26 26 26 26 26 26 25 25 25 25 24 24 25 24 24 24 24 24 24 24 24 24 24 24 23 23 23 23 23 23 23 24 24 24 24 24
27 27 27 27 27 27 28 27 27 27 27 27 26 26 26 26 26 26 26 26 25 25 25 26 26 25 25 26 26 26 26 26 25 25 26 25 24 24 23 24 25 24 24
29 29 29 28 28 28 29 29 29 29 28 28 27 27 27 27 27 27 27 26 26 26 26 27 27 26 26 26 27 27 27 26 27 26 26 26 25 24 24 25 26 26 25
30 30 30 30 30 30 30 30 30 29 28 28 28 28 28 28 28 28 28 27 27 27 27 27 28 28 28 28 28 28 27 27 27 27 27 26 27 26 26 26 27 28 28
30 30 30 30 30 31 31 31 31 30 29 29 29 29 29 30 29 28 28 28 28 28 28 28 28 28 29 28 28 28 28 27 27 28 28 28 28 27 27 27 28 28 29
30 29 30 30 30 30 31 32 32 31 30 30 30 30 29 29 29 29 28 29 29 29 28 28 28 29 29 29 29 29 29 29 29 29 29 29 29 29 29 28 28 27 28
28 29 29 30 31 30 31 31 31 31 31 31 31 31 31 29 28 29 29 29 29 29 28 28 28 28 29 29 29 30 29 30 30 29 29 30 30 29 30 29 29 28 28
28 29 29 30 30 30 30 30 30 31 30 31 31 31 30 29 29 29 30 30 30 30 29 29 29 28 29 29 29 29 29 30 30 30 29 30 31 30 30 29 29 29 29
28 28 28 29 29 30 30 30 30 30 30 30 30 30 30 30 29 29 29 30 30 30 30 29 29 29 30 30 30 29 30 30 30 29 29 30 30 30 31 30 29 29 30
27 27 27 28 28 29 29 29 29 29 30 30 30 30 30 30 29 29 29 30 30 30 30 30 30 30 30 30 30 30 30 30 30 30 30 30 30 30 30 31 31 31 31
26 26 26 27 27 28 28 28 29 29 30 30 29 29 29 29 29 29 28 29 29 29 29 30 30 30 30 30 30 30 31 31 31 30 30 31 30 31 31 31 31 31 31
26 25 25 26 26 25 25 26 26 27 28 28 28 27 27 27 27 27 27 27 27 27 28 29 30 30 30 30 30 31 31 32 31 31 30 31 31 31 31 31 31 30 30
24 23 24 23 24 24 24 25 26 26 26 27 27 27 26 26 26 26 26 26 26 27 27 28 29 30 30 30 30 31 31 32 32 31 30 31 31 32 31 32 32 31 31
22 22 23 22 22 22 22 22 23 24 24 25 25 25 24 24 24 24 25 25 25 26 27 28 28 29 29 30 30 30 31 31 31 31 31 31 32 32 32 32 32 33 33
21 21 21 22 22 21 21 22 23 23 23 23 23 23 23 22 21 22 23 23 24 24 26 27 28 28 28 29 30 31 31 32 32 31 31 31 32 32 32 32 32 32 33
20 20 20 20 20 19 19 20 20 20 20 21 21 22 22 23 22 22 23 23 24 25 25 26 27 28 28 29 30 30 31 32 32 32 32 32 33 33 33 33 33 32 32
18 18 18 18 18 17 17 16 17 18 19 19 19 20 20 22 22 22 23 23 24 25 25 25 25 27 27 28 29 30 30 31 32 32 32 33 33 34 33 34 34 33 33
17 17 17 17 16 16 16 16 16 16 17 18 18 18 19 20 20 20 21 22 23 24 24 24 24 25 26 27 28 29 29 30 31 32 32 32 33 34 34 34 34 34 34
15 15 14 14 14 15 15 14 14 15 15 16 17 18 18 18 19 19 19 20 21 22 23 23 24 24 25 25 26 28 28 29 29 30 32 32 33 33 34 34 34 34 34
14 13 13 13 13 15 15 13 14 15 16 16 17 18 18 18 18 19 20 20 22 23 23 24 24 24 25 26 27 28 29 29 29 29 30 31 32 32 33 34 34 34 35
12 12 12 12 13 14 14 13 14 15 16 16 17 18 18 19 19 19 20 21 22 22 22 23 24 25 26 27 27 28 29 29 30 31 31 31 31 32 33 34 35 35 35
12 12 11 11 12 12 13 14 14 15 15 16 17 17 18 18 18 18 18 19 20 20 21 22 23 24 25 26 26 27 28 28 30 31 32 31 31 31 32 33 34 34 34
12 11 11 11 11 12 13 13 14 15 15 16 16 17 17 17 16 17 18 18 19 18 19 20 21 22 24 25 25 26 26 27 28 28 28 29 29 30 32 32 33 33 33
11 11 11 12 12 12 13 13 14 14 14 15 15 15 15 15 15 15 16 16 16 17 17 18 19 20 21 22 22 23 24 25 25 26 28 28 28 29 30 31 32 32 32
11 11 11 12 12 13 13 13 13 14 14 14 15 15 15 15 14 14 14 15 15 16 16 16 17 18 19 19 20 21 22 23 24 25 26 27 28 28 28 29 30 30 31
Wind_Direction
281 282 283 279 278 277 276 274 273 274 273 271 269 268 268 266 265 267 266 264 264 263 262 261 259 257 255 254 255 253 250 249 248 247 245 244 241 239 239 239 241 240 239
280 282 282 279 278 276 275 274 273 272 272 271 270 269 269 267 267 267 266 264 263 263 262 261 259 257 256 256 254 254 252 251 249 247 245 244 245 243 242 241 242 242 241
280 280 279 278 277 275 274 273 271 270 270 271 270 269 268 267 268 267 265 264 264 264 263 261 259 256 255 257 255 255 255 252 249 249 247 247 245 245 246 243 242 242 243
279 278 277 277 274 274 273 271 271 269 269 271 271 270 269 268 268 267 266 263 263 263 263 261 259 258 256 257 256 256 256 255 251 249 249 247 245 245 246 244 243 242 244
280 279 277 274 273 272 272 271 270 269 269 270 271 271 271 270 269 267 265 264 264 264 263 261 260 259 257 256 257 255 256 256 254 251 249 247 247 246 246 246 246 245 245
283 281 277 273 272 271 271 270 269 270 268 269 271 272 272 271 268 266 264 263 265 265 263 260 260 259 257 256 256 256 256 256 255 252 250 249 248 247 247 248 248 248 247
284 281 277 275 274 273 270 269 269 269 268 269 270 271 271 271 270 267 265 263 263 263 262 260 259 257 255 254 255 257 257 256 256 255 253 250 249 248 248 249 250 249 247
283 279 277 276 274 272 271 269 269 269 268 268 270 270 270 270 270 268 266 264 263 262 262 260 259 258 257 257 255 256 257 257 257 257 254 253 251 250 248 249 250 250 248
285 282 278 277 276 274 271 270 268 268 268 268 269 269 269 268 269 268 267 265 263 261 261 260 259 260 259 258 257 257 256 257 256 255 254 253 252 252 250 249 250 250 249
286 284 279 277 276 273 270 267 267 267 266 267 270 270 269 267 268 268 267 266 264 262 261 260 259 259 259 258 258 258 256 255 254 253 253 253 252 252 250 250 250 250 250
288 285 280 278 275 272 270 268 268 267 265 266 268 268 267 267 268 268 266 266 265 263 262 261 260 259 258 257 258 258 257 255 253 253 252 252 252 252 251 250 250 250 250
289 288 283 280 278 274 271 269 268 267 265 267 268 268 267 265 265 266 265 264 264 264 263 261 260 259 257 257 257 257 256 255 254 253 252 251 252 252 251 251 250 249 250
290 288 287 283 282 277 270 267 267 267 265 265 266 266 266 267 266 266 264 263 264 264 263 262 260 259 258 256 257 256 257 255 254 253 252 252 252 251 251 250 250 250 249
291 289 288 285 282 279 271 267 267 266 265 266 266 265 266 266 267 266 263 262 262 263 263 263 261 260 259 257 256 257 256 255 255 253 252 252 252 251 251 250 250 250 250
292 292 291 288 285 281 275 269 270 266 266 266 265 265 264 265 267 266 262 260 261 261 262 263 261 261 260 258 256 256 256 256 255 253 252 252 251 251 250 251 251 251 252
293 294 294 291 289 284 278 273 270 267 267 267 267 265 265 266 266 265 263 261 261 261 262 264 263 262 260 259 258 257 256 256 255 254 253 252 251 251 252 252 253 253 254
296 296 296 296 292 288 281 276 271 271 271 271 269 267 264 264 265 264 264 264 264 262 264 265 263 262 260 260 258 258 257 256 255 254 253 252 252 252 252 253 254 253 252
301 301 300 296 293 288 284 278 278 278 275 275 274 271 269 268 268 267 266 266 265 264 265 264 263 261 261 260 259 258 259 258 255 254 253 253 251 251 251 253 253 252 251
303 303 302 297 293 287 285 284 283 279 279 278 279 277 276 274 273 271 270 267 265 265 265 264 263 262 261 260 259 258 259 260 257 254 253 253 251 251 251 251 252 252 252
304 302 300 299 293 289 290 289 285 284 284 283 282 281 279 278 276 274 273 270 268 266 265 264 263 263 263 261 260 260 261 262 259 257 255 253 251 252 252 252 252 253 252
302 303 304 300 295 295 295 292 289 288 288 287 286 285 283 282 279 278 277 275 273 270 267 266 266 265 264 264 264 263 262 262 259 258 257 255 254 254 253 252 251 253 253
303 305 306 304 298 297 294 294 294 291 290 290 290 287 285 285 280 280 280 278 276 272 269 267 265 266 265 265 265 263 262 261 258 257 256 254 254 254 254 252 251 252 253
305 304 304 300 300 300 301 301 297 294 292 293 292 290 289 290 284 283 282 280 277 274 270 267 267 268 268 268 266 265 263 262 260 258 256 254 253 254 252 252 251 252 253
303 302 301 299 299 301 303 304 302 297 295 298 297 295 293 291 287 284 283 283 281 279 275 273 272 271 270 269 269 267 266 265 263 261 258 256 254 254 254 252 252 252 253
309 306 304 304 306 309 311 309 309 304 301 302 301 299 299 293 290 288 287 286 285 284 281 278 277 276 276 274 271 269 267 266 264 262 260 258 255 254 254 253 253 253 253
312 317 314 314 314 318 318 318 317 315 312 308 305 304 303 300 295 294 294 293 292 288 285 282 282 280 280 277 274 272 269 267 265 263 262 260 258 256 254 255 255 255 255
Height
5841 5840 5839 5838 5837 5837 5836 5836 5835 5835 5834 5834 5834 5834 5834 5833 5833 5833 5833 5833 5834 5834 5834 5834 5834 5834 5835 5836 5836 5837 5838 5839 5840 5842 5843 5844 5845 5847 5848 5850 5851 5853 5854
5835 5834 5833 5832 5831 5830 5830 5830 5829 5829 5828 5828 5827 5827 5827 5827 5827 5827 5827 5827 5828 5828 5828 5828 5828 5829 5829 5830 5831 5832 5833 5834 5835 5836 5838 5839 5840 5842 5843 5845 5846 5848 5849
5829 5828 5827 5826 5825 5824 5824 5823 5822 5822 5822 5821 5821 5820 5821 5821 5821 5820 5820 5821 5821 5821 5822 5822 5823 5823 5824 5824 5825 5826 5827 5828 5829 5831 5832 5834 5835 5837 5838 5840 5841 5843 5844
5822 5821 5820 5819 5818 5818 5817 5816 5816 5815 5815 5814 5814 5813 5813 5814 5814 5814 5814 5814 5814 5815 5815 5816 5816 5817 5818 5818 5819 5820 5821 5822 5823 5824 5826 5828 5829 5831 5833 5834 5836 5837 5839
5815 5814 5813 5812 5811 5810 5810 5809 5809 5808 5808 5808 5807 5807 5807 5807 5807 5807 5807 5807 5808 5808 5808 5809 5810 5810 5811 5812 5813 5813 5814 5816 5817 5818 5820 5822 5823 5825 5827 5828 5830 5831 5833
5807 5806 5805 5804 5803 5803 5802 5802 5801 5801 5801 5801 5800 5800 5800 5800 5799 5800 5800 5800 5801 5801 5801 5802 5803 5803 5804 5805 5806 5807 5808 5809 5810 5812 5814 5815 5817 5819 5821 5822 5824 5825 5827
5800 5799 5797 5797 5796 5795 5795 5794 5794 5793 5793 5793 5793 5793 5793 5792 5792 5792 5792 5792 5793 5794 5794 5795 5795 5796 5797 5798 5799 5800 5801 5802 5803 5805 5807 5809 5810 5812 5814 5816 5817 5819 5820
5793 5791 5790 5789 5788 5787 5787 5786 5786 5786 5786 5785 5785 5785 5785 5785 5784 5784 5785 5785 5785 5786 5787 5787 5788 5789 5789 5790 5791 5793 5794 5795 5796 5798 5800 5802 5803 5805 5807 5809 5810 5812 5814
5786 5784 5783 5781 5780 5779 5779 5779 5778 5778 5777 5777 5777 5777 5777 5777 5777 5777 5777 5777 5778 5778 5779 5780 5781 5781 5782 5783 5784 5785 5786 5788 5789 5791 5793 5794 5796 5798 5800 5802 5803 5805 5807
5779 5777 5775 5773 5772 5771 5771 5770 5770 5770 5769 5769 5769 5769 5769 5769 5769 5769 5769 5769 5770 5770 5771 5772 5773 5774 5775 5775 5776 5777 5779 5780 5782 5784 5785 5787 5788 5790 5792 5795 5796 5798 5800
5771 5769 5767 5766 5765 5763 5763 5762 5761 5761 5761 5761 5761 5761 5761 5760 5760 5761 5761 5761 5762 5762 5763 5764 5765 5766 5767 5768 5769 5770 5771 5772 5774 5776 5777 5779 5781 5783 5785 5787 5789 5791 5793
5764 5761 5760 5758 5757 5755 5754 5754 5754 5754 5753 5753 5753 5753 5753 5753 5753 5753 5753 5754 5754 5754 5755 5756 5757 5758 5759 5760 5761 5762 5763 5765 5766 5768 5770 5771 5773 5775 5777 5779 5781 5783 5785
5757 5755 5753 5751 5749 5748 5747 5746 5746 5746 5746 5746 5746 5745 5745 5745 5745 5745 5746 5746 5746 5746 5747 5747 5748 5749 5750 5752 5753 5754 5755 5757 5758 5760 5762 5764 5766 5767 5769 5771 5773 5775 5777
5751 5748 5746 5744 5743 5741 5739 5739 5739 5739 5738 5738 5738 5738 5737 5737 5737 5737 5738 5738 5739 5739 5739 5739 5740 5741 5742 5744 5745 5746 5747 5749 5750 5752 5754 5756 5758 5760 5762 5764 5766 5767 5769
5745 5743 5740 5738 5736 5734 5733 5732 5732 5732 5732 5731 5731 5731 5730 5730 5730 5730 5730 5731 5732 5732 5732 5732 5732 5733 5734 5736 5737 5738 5740 5741 5742 5744 5746 5748 5750 5751 5754 5756 5758 5759 5761
5739 5737 5735 5733 5731 5729 5728 5727 5727 5727 5726 5725 5725 5724 5724 5723 5723 5724 5724 5724 5724 5725 5725 5725 5725 5725 5726 5728 5729 5730 5731 5733 5735 5736 5738 5740 5742 5744 5746 5748 5749 5751 5753
5734 5732 5730 5727 5725 5724 5723 5722 5721 5721 5720 5719 5719 5718 5718 5718 5717 5717 5717 5717 5718 5718 5718 5718 5718 5718 5719 5720 5721 5722 5723 5724 5726 5728 5730 5732 5734 5735 5737 5739 5741 5743 5744
5729 5727 5725 5722 5721 5719 5718 5717 5716 5716 5715 5714 5713 5713 5712 5711 5711 5711 5710 5710 5711 5711 5711 5711 5711 5711 5712 5712 5713 5714 5715 5716 5717 5719 5721 5723 5725 5727 5729 5731 5732 5734 5736
5725 5722 5720 5718 5716 5715 5714 5713 5712 5711 5710 5709 5708 5707 5706 5706 5705 5704 5703 5703 5703 5704 5704 5704 5704 5704 5704 5705 5705 5706 5707 5707 5708 5710 5712 5714 5715 5717 5719 5722 5723 5725 5727
5721 5718 5716 5715 5713 5712 5710 5709 5707 5706 5705 5704 5703 5702 5701 5700 5699 5699 5698 5697 5697 5697 5697 5697 5697 5697 5697 5697 5698 5699 5699 5699 5700 5701 5703 5704 5706 5708 5710 5712 5714 5716 5717
5718 5715 5713 5711 5709 5708 5707 5705 5703 5702 5701 5700 5698 5697 5696 5695 5694 5693 5692 5691 5691 5690 5690 5690 5690 5690 5690 5690 5691 5691 5691 5691 5692 5693 5694 5696 5697 5699 5700 5702 5704 5706 5708
5714 5712 5710 5708 5706 5705 5703 5701 5700 5698 5697 5695 5694 5692 5691 5690 5688 5687 5686 5686 5685 5684 5684 5683 5683 5683 5683 5683 5683 5682 5683 5683 5684 5685 5686 5687 5688 5689 5691 5693 5694 5696 5698
5711 5709 5707 5705 5703 5701 5700 5698 5696 5694 5693 5691 5689 5687 5686 5684 5683 5682 5681 5680 5679 5678 5677 5677 5677 5676 5676 5675 5675 5675 5675 5675 5676 5676 5677 5678 5679 5680 5682 5683 5685 5687 5688
5708 5706 5704 5702 5700 5699 5697 5695 5692 5690 5688 5687 5685 5683 5681 5679 5678 5676 5675 5674 5673 5672 5671 5671 5670 5669 5669 5668 5667 5667 5667 5667 5667 5667 5668 5669 5670 5671 5673 5674 5676 5677 5679
5705 5703 5701 5700 5698 5696 5693 5691 5689 5687 5685 5683 5681 5679 5677 5675 5673 5672 5670 5669 5668 5666 5665 5665 5664 5663 5662 5661 5660 5660 5660 5659 5660 5660 5660 5660 5661 5662 5664 5665 5666 5668 5670
5702 5701 5699 5697 5695 5693 5691 5688 5686 5683 5681 5679 5677 5675 5673 5671 5669 5667 5666 5665 5663 5661 5660 5659 5658 5657 5655 5654 5654 5653 5653 5652 5652 5652 5652 5653 5653 5654 5655 5656 5658 5659 5660